Weather History for Aniak, AK

Change the Weather History Date:

Thursday, October 31, 2013

  Actual Average Record
Temperature  
Mean Temperature 28 °F -  
Max Temperature 30 °F 27 °F 46 °F (2002)
Min Temperature 26 °F 16 °F -14 °F (1997)
Degree Days  
Heating Degree Days 37    
Moisture  
Dew Point 23 °F    
Average Humidity 80    
Maximum Humidity 93    
Minimum Humidity 69    
Precipitation  
Precipitation 0.00 in - - ()
Sea Level Pressure  
Sea Level Pressure 29.59 in    
Wind  
Wind Speed 7 mph (NNW)    
Max Wind Speed 9 mph    
Max Gust Speed -    
Visibility 8 miles    
Events      
Averages and records for this station are not official NWS values.
T = Trace of Precipitation, MM = Missing Value Source: NWS Daily Summary

Daily Weather History Graph

Daily Weather History Graph

Search for Another Location

Airport:

Trip Planner

Search our weather history database for the weather conditions in past years. The results will help you decide how hot, cold, wet, or windy it might be!

Date:

Astronomy

Oct. 31, 2013 Rise Set
Actual Time 10:06 AM AKDT 6:36 PM AKDT
Civil Twilight 9:18 AM AKDT 7:23 PM AKDT
Nautical Twilight 8:26 AM AKDT 8:15 PM AKDT
Astronomical Twilight 7:35 AM AKDT 9:06 PM AKDT
Moon 6:22 AM AKDT (10/31) 5:38 PM AKDT (10/31)
Length of Visible Light 10h 05m
Length of Day
8h 29m
Waning Crescent, 9% of the Moon is Illuminated
Oct 31
Waning Crescent
Nov 3
New
Nov 9
First Quarter
Nov 17
Full
Nov 25
Last Quarter

Hourly Weather History & Observations

Time (AKDT) Temp. Windchill Dew Point Humidity Pressure Visibility Wind Dir Wind Speed Gust Speed Precip Events Conditions
12:16 AM 30.2 °F 22.6 °F 26.6 °F 86% 29.37 in 10.0 mi NNW 8.1 mph - N/A   Overcast
12:36 AM 30.2 °F 21.9 °F 26.6 °F 86% 29.38 in 10.0 mi NNW 9.2 mph - N/A   Overcast
12:56 AM 30.2 °F 21.9 °F 24.8 °F 80% 29.38 in 9.0 mi NNW 9.2 mph - N/A   Overcast
1:16 AM 30.2 °F 21.9 °F 26.6 °F 86% 29.39 in 4.0 mi North 9.2 mph - N/A   Overcast
1:36 AM 30.2 °F 23.4 °F 26.6 °F 86% 29.40 in 4.0 mi North 6.9 mph - N/A   Overcast
1:56 AM 30.2 °F 23.4 °F 26.6 °F 86% 29.40 in 6.0 mi North 6.9 mph - N/A   Overcast
2:16 AM 30.2 °F 24.3 °F 26.6 °F 86% 29.41 in 5.0 mi North 5.8 mph - N/A   Overcast
2:36 AM 30.2 °F 23.4 °F 26.6 °F 86% 29.41 in 4.0 mi North 6.9 mph - N/A   Overcast
2:56 AM 30.2 °F 23.4 °F 26.6 °F 86% 29.41 in 5.0 mi North 6.9 mph - N/A   Overcast
3:16 AM 30.2 °F 22.6 °F 26.6 °F 86% 29.42 in 5.0 mi NNW 8.1 mph - N/A   Overcast
3:36 AM 30.2 °F 22.6 °F 26.6 °F 86% 29.42 in 6.0 mi NNW 8.1 mph - N/A   Overcast
3:56 AM 30.2 °F 22.6 °F 26.6 °F 86% 29.43 in 7.0 mi NNW 8.1 mph - N/A   Overcast
4:16 AM 30.2 °F 23.4 °F 26.6 °F 86% 29.44 in 4.0 mi NNW 6.9 mph - N/A   Overcast
4:36 AM 30.2 °F 23.4 °F 26.6 °F 86% 29.45 in 3.0 mi NW 6.9 mph - N/A   Overcast
4:56 AM 30.2 °F 23.4 °F 26.6 °F 86% 29.45 in 3.0 mi NNW 6.9 mph - N/A   Overcast
5:16 AM 30.2 °F 23.4 °F 26.6 °F 86% 29.45 in 3.0 mi NNW 6.9 mph - N/A   Overcast
5:36 AM 28.4 °F 21.2 °F 24.8 °F 86% 29.46 in 2.0 mi North 6.9 mph - N/A   Overcast
5:56 AM 28.4 °F 22.2 °F 26.6 °F 93% 29.46 in 2.0 mi NW 5.8 mph - N/A   Overcast
6:16 AM 28.4 °F 20.4 °F 24.8 °F 86% 29.47 in 3.0 mi NNW 8.1 mph - N/A   Overcast
6:36 AM 28.4 °F 20.4 °F 24.8 °F 86% 29.47 in 5.0 mi NNW 8.1 mph - N/A   Overcast
6:56 AM 28.4 °F 19.7 °F 24.8 °F 86% 29.48 in 4.0 mi NNW 9.2 mph - N/A   Overcast
7:16 AM 28.4 °F 19.7 °F 24.8 °F 86% 29.49 in 3.0 mi NNW 9.2 mph - N/A   Overcast
7:36 AM 28.4 °F 19.7 °F 24.8 °F 86% 29.49 in 4.0 mi NNW 9.2 mph - N/A   Overcast
7:56 AM 28.4 °F 22.2 °F 24.8 °F 86% 29.50 in 3.0 mi NNW 5.8 mph - N/A   Overcast
8:16 AM 28.4 °F 21.2 °F 24.8 °F 86% 29.51 in 4.0 mi NNW 6.9 mph - N/A   Overcast
8:36 AM 28.4 °F 21.2 °F 24.8 °F 86% 29.51 in 10.0 mi NNW 6.9 mph - N/A   Mostly Cloudy
8:56 AM 28.4 °F 23.3 °F 24.8 °F 86% 29.52 in 10.0 mi NNW 4.6 mph - N/A   Overcast
9:16 AM 28.4 °F 21.2 °F 23.0 °F 80% 29.52 in 10.0 mi NNW 6.9 mph - N/A   Overcast
9:36 AM 28.4 °F 21.2 °F 23.0 °F 80% 29.53 in 10.0 mi NW 6.9 mph - N/A   Overcast
9:56 AM 28.4 °F 22.2 °F 23.0 °F 80% 29.54 in 10.0 mi NNW 5.8 mph - N/A   Overcast
10:16 AM 26.6 °F 18.2 °F 23.0 °F 86% 29.55 in 10.0 mi NNW 8.1 mph - N/A   Overcast
10:36 AM 26.6 °F 19.1 °F 21.2 °F 80% 29.55 in 10.0 mi NW 6.9 mph - N/A   Overcast
10:56 AM 26.6 °F 20.0 °F 21.2 °F 80% 29.56 in 10.0 mi NW 5.8 mph - N/A   Overcast
11:16 AM 26.6 °F 18.2 °F 21.2 °F 80% 29.57 in 10.0 mi NNW 8.1 mph - N/A   Overcast
11:36 AM 26.6 °F 18.2 °F 21.2 °F 80% 29.57 in 10.0 mi NNW 8.1 mph - N/A   Scattered Clouds
11:56 AM 26.6 °F 18.2 °F 21.2 °F 80% 29.58 in 10.0 mi NW 8.1 mph - N/A   Clear
12:16 PM 26.6 °F 21.2 °F 21.2 °F 80% 29.59 in 10.0 mi WNW 4.6 mph - N/A   Scattered Clouds
12:36 PM 26.6 °F 19.1 °F 21.2 °F 80% 29.60 in 10.0 mi NNW 6.9 mph - N/A   Mostly Cloudy
12:56 PM 26.6 °F 19.1 °F 21.2 °F 80% 29.61 in 10.0 mi NW 6.9 mph - N/A   Overcast
1:16 PM 28.4 °F 21.2 °F 21.2 °F 74% 29.62 in 10.0 mi NW 6.9 mph - N/A   Overcast
1:36 PM 28.4 °F 21.2 °F 21.2 °F 74% 29.63 in 10.0 mi NNW 6.9 mph - N/A   Overcast
1:56 PM 28.4 °F 20.4 °F 21.2 °F 74% 29.63 in 10.0 mi NNW 8.1 mph - N/A   Overcast
2:16 PM 28.4 °F 21.2 °F 23.0 °F 80% 29.64 in 10.0 mi NNW 6.9 mph - N/A   Overcast
2:36 PM 28.4 °F 21.2 °F 21.2 °F 74% 29.65 in 10.0 mi NNW 6.9 mph - N/A   Overcast
2:56 PM 28.4 °F 19.7 °F 23.0 °F 80% 29.65 in 10.0 mi North 9.2 mph - N/A   Overcast
3:16 PM 28.4 °F 21.2 °F 23.0 °F 80% 29.65 in 10.0 mi NNW 6.9 mph - N/A   Overcast
3:36 PM 28.4 °F 19.7 °F 23.0 °F 80% 29.66 in 10.0 mi North 9.2 mph - N/A   Overcast
3:56 PM 28.4 °F 20.4 °F 23.0 °F 80% 29.67 in 10.0 mi NW 8.1 mph - N/A   Overcast
4:16 PM 28.4 °F 22.2 °F 23.0 °F 80% 29.68 in 10.0 mi NNW 5.8 mph - N/A   Overcast
4:36 PM 28.4 °F 21.2 °F 21.2 °F 74% 29.68 in 10.0 mi North 6.9 mph - N/A   Overcast
4:56 PM 28.4 °F 21.2 °F 21.2 °F 74% 29.69 in 10.0 mi NW 6.9 mph - N/A   Overcast
5:16 PM 28.4 °F 22.2 °F 21.2 °F 74% 29.70 in 10.0 mi NW 5.8 mph - N/A   Overcast
5:36 PM 28.4 °F 23.3 °F 21.2 °F 74% 29.70 in 10.0 mi NNW 4.6 mph - N/A   Overcast
5:56 PM 28.4 °F 22.2 °F 23.0 °F 80% 29.71 in 10.0 mi North 5.8 mph - N/A   Overcast
6:16 PM 28.4 °F 21.2 °F 21.2 °F 74% 29.72 in 10.0 mi NNW 6.9 mph - N/A   Overcast
6:36 PM 28.4 °F 22.2 °F 23.0 °F 80% 29.73 in 10.0 mi NNW 5.8 mph - N/A   Overcast
6:56 PM 28.4 °F 22.2 °F 21.2 °F 74% 29.74 in 10.0 mi NNW 5.8 mph - N/A   Overcast
7:16 PM 28.4 °F 21.2 °F 21.2 °F 74% 29.75 in 10.0 mi NW 6.9 mph - N/A   Overcast
7:36 PM 28.4 °F 22.2 °F 21.2 °F 74% 29.75 in 10.0 mi NNW 5.8 mph - N/A   Overcast
7:56 PM 28.4 °F 22.2 °F 21.2 °F 74% 29.76 in 10.0 mi NW 5.8 mph - N/A   Overcast
8:16 PM 28.4 °F 21.2 °F 21.2 °F 74% 29.77 in 10.0 mi NW 6.9 mph - N/A   Overcast
8:36 PM 28.4 °F 21.2 °F 21.2 °F 74% 29.78 in 10.0 mi NW 6.9 mph - N/A   Overcast
8:56 PM 28.4 °F 20.4 °F 21.2 °F 74% 29.79 in 10.0 mi WNW 8.1 mph - N/A   Overcast
9:16 PM 28.4 °F 21.2 °F 21.2 °F 74% 29.79 in 10.0 mi NW 6.9 mph - N/A   Overcast
9:36 PM 28.4 °F 22.2 °F 21.2 °F 74% 29.80 in 10.0 mi WNW 5.8 mph - N/A   Overcast
10:16 PM 28.4 °F 22.2 °F 21.2 °F 74% 29.82 in 10.0 mi NNW 5.8 mph - N/A   Overcast
10:36 PM 28.4 °F 22.2 °F 21.2 °F 74% 29.83 in 10.0 mi NNW 5.8 mph - N/A   Overcast
10:56 PM 28.4 °F 23.3 °F 21.2 °F 74% 29.84 in 10.0 mi NNW 4.6 mph - N/A   Overcast
11:16 PM 26.6 °F 22.6 °F 21.2 °F 80% 29.85 in 10.0 mi NNW 3.5 mph - N/A   Overcast
11:36 PM 28.4 °F 23.3 °F 19.4 °F 69% 29.86 in 10.0 mi NW 4.6 mph - N/A   Overcast
11:56 PM 28.4 °F 23.3 °F 21.2 °F 74% 29.87 in 10.0 mi NW 4.6 mph - N/A   Overcast